VE7GEL Weather Reports


time (UTC)temp
C
wind
direction
speed
KPH
gust
KPH
rain 1hr
cm
rain 24hr
cm
rain mn
cm
humidity
%
barometer
mb
20260503230039 17 219 1.6 6.4 0.00 0.00 0.00 65 1011.5
20260503230002 17 300 1.6 4.8 0.00 0.00 0.00 65 1011.8
20260503224540 16 200 3.2 11.3 0.00 0.00 0.00 72 1011.6
20260503223040 18 248 1.6 6.4 0.00 0.00 0.00 69 1011.8
20260503221539 21 216 1.6 6.4 0.00 0.00 0.00 57 1012.1
20260503220034 25 0 1.6 4.8 0.00 0.00 0.00 38 1011.9
20260503220002 25 0 1.6 3.2 0.00 0.00 0.00 38 1012.2
20260503214536 25 259 1.6 6.4 0.00 0.00 0.00 38 1012.0
20260503214505 25 228 1.6 6.4 0.00 0.00 0.00 39 1012.3
20260503213035 25 222 1.6 6.4 0.00 0.00 0.00 40 1012.1
20260503211535 23 0 1.6 4.8 0.00 0.00 0.00 42 1012.2
20260503211502 23 256 1.6 4.8 0.00 0.00 0.00 43 1012.6
20260503210031 23 188 1.6 6.4 0.00 0.00 0.00 43 1012.5
20260503204532 22 0 1.6 6.4 0.00 0.00 0.00 44 1012.7
20260503204502 22 173 1.6 4.8 0.00 0.00 0.00 44 1013.0
20260503203034 18 0 0.0 4.8 0.00 0.00 0.00 54 1012.9
20260503201533 16 0 0.0 3.2 0.00 0.00 0.00 67 1013.2
20260503201502 16 0 0.0 1.6 0.00 0.00 0.00 67 1013.5
20260503200030 16 41 0.0 4.8 0.00 0.00 0.00 67 1013.3
20260503200002 16 0 0.0 4.8 0.00 0.00 0.00 68 1013.6
20260503194531 15 0 0.0 4.8 0.00 0.00 0.00 71 1013.4
20260503193029 15 240 1.6 4.8 0.00 0.00 0.00 72 1013.5
20260503191526 15 209 1.6 8.0 0.00 0.00 0.00 74 1013.6
20260503191502 15 203 1.6 8.0 0.00 0.00 0.00 74 1014.0
20260503190025 15 0 0.0 4.8 0.00 0.00 0.00 75 1013.8
20260503184524 15 0 0.0 4.8 0.00 0.00 0.00 75 1013.9
20260503183027 14 168 0.0 4.8 0.00 0.00 0.00 78 1014.1
20260503181525 14 0 0.0 3.2 0.00 0.00 0.00 78 1014.2
20260503181504 14 214 0.0 3.2 0.00 0.00 0.00 79 1014.6
20260503180024 14 253 0.0 3.2 0.00 0.00 0.00 80 1014.4
20260503174525 14 241 0.0 4.8 0.00 0.00 0.00 78 1014.5
20260503174503 14 225 0.0 3.2 0.00 0.00 0.00 78 1014.8
20260503173023 15 265 0.0 3.2 0.00 0.00 0.00 74 1014.4
20260503171524 15 193 0.0 3.2 0.00 0.00 0.00 71 1014.5
20260503171503 15 0 0.0 3.2 0.00 0.00 0.00 71 1014.8
20260503081419 15 0 0.0 3.2 0.00 0.00 0.00 79 1014.2
20260503072917 16 0 0.0 1.6 0.00 0.00 0.00 74 1014.1
20260503071503 16 0 0.0 3.2 0.00 0.00 0.00 75 1014.4
20260503071416 16 0 0.0 3.2 0.00 0.00 0.00 75 1014.1
20260503054411 17 313 0.0 3.2 0.00 0.00 0.05 65 1014.1
20260503052912 17 295 0.0 3.2 0.00 0.00 0.05 64 1014.2
20260503051502 18 33 0.0 3.2 0.00 0.00 0.05 55 1014.5
20260503051411 18 0 0.0 3.2 0.00 0.00 0.05 55 1014.2
20260503045912 18 0 0.0 3.2 0.00 0.00 0.05 58 1014.2
20260503044502 19 0 0.0 3.2 0.00 0.00 0.05 54 1014.4
20260503044410 19 0 0.0 3.2 0.00 0.00 0.05 53 1014.0
20260503043002 19 0 0.0 3.2 0.00 0.00 0.05 48 1014.3
20260503042851 19 0 0.0 3.2 0.00 0.00 0.05 48 1014.0
20260503041353 19 0 0.0 1.6 0.00 0.00 0.05 47 1014.0
20260503035853 19 0 0.0 3.2 0.00 0.00 0.05 48 1013.8
20260503034502 19 39 0.0 3.2 0.00 0.00 0.05 50 1013.9
20260503034346 19 39 0.0 3.2 0.00 0.00 0.05 50 1013.6
20260503032848 18 0 0.0 3.2 0.00 0.00 0.05 52 1013.5
20260503031502 18 0 0.0 3.2 0.00 0.00 0.05 52 1013.7
20260503031346 18 0 0.0 3.2 0.00 0.00 0.05 52 1013.4
20260503030002 18 279 0.0 3.2 0.00 0.00 0.05 53 1013.6
20260503025850 18 0 0.0 3.2 0.00 0.00 0.05 53 1013.3
20260503024502 18 0 0.0 3.2 0.00 0.00 0.05 53 1013.7
20260503024344 18 0 0.0 4.8 0.00 0.00 0.05 53 1013.4
20260503022848 20 0 0.0 3.2 0.00 0.00 0.05 51 1013.5
20260503021503 21 0 0.0 3.2 0.00 0.00 0.05 48 1013.8
20260503021345 21 292 0.0 3.2 0.00 0.00 0.05 48 1013.5
20260503015851 21 0 0.0 4.8 0.00 0.00 0.05 47 1013.5
20260503014339 22 231 1.6 4.8 0.00 0.00 0.05 46 1013.7
20260503012841 22 243 1.6 3.2 0.00 0.00 0.05 46 1013.9
20260503011502 22 284 0.0 3.2 0.00 0.00 0.05 47 1014.2
20260503011337 22 0 0.0 4.8 0.00 0.00 0.05 47 1013.9
20260503005841 21 272 0.0 3.2 0.00 0.00 0.05 50 1014.0
20260503004334 22 239 1.6 6.4 0.00 0.00 0.05 49 1014.2
20260503002839 21 43 0.0 4.8 0.00 0.00 0.05 50 1014.3
20260503001336 20 275 0.0 3.2 0.00 0.00 0.05 54 1014.4
20260502235835 19 103 0.0 6.4 0.00 0.00 0.05 59 1014.5
20260502234502 19 204 0.0 6.4 0.00 0.00 0.05 60 1015.1
20260502234332 19 0 0.0 6.4 0.00 0.00 0.05 60 1014.8
20260502233002 18 279 1.6 4.8 0.00 0.00 0.05 63 1015.2
20260502232837 18 0 0.0 0.0 0.00 0.00 0.05 64 1014.9
20260502232103 18 77 1.6 6.4 0.00 0.05 0.05 64 1015.1